This is the latest recevied weather packets stored in our database for station/object K4ZZR. If no packets are shown the sender has not sent any weather packets the latest 10 day(s).
| Time | Temp. | Humidity | Pressure | Rain* | Wind** | Luminosity | Snow |
|---|---|---|---|---|---|---|---|
| 1777745570 | 32.78° C | 56% | 1010.2 hPa | 0 mm | - | 920 W/m² | - |
| 1777745267 | 32.78° C | 56% | 1010 hPa | 0 mm | - | 933 W/m² | - |
| 1777744964 | 33.33° C | 57% | 1010.1 hPa | 0 mm | - | 932 W/m² | - |
| 1777744664 | 32.78° C | 58% | 1010.1 hPa | 0 mm | - | 931 W/m² | - |
| 1777744358 | 32.78° C | 58% | 1010.5 hPa | 0 mm | - | 935 W/m² | - |
| 1777744056 | 32.78° C | 58% | 1010.3 hPa | 0 mm | - | 914 W/m² | - |
| 1777743753 | 32.22° C | 59% | 1010.4 hPa | 0 mm | - | 303 W/m² | - |
| 1777743450 | 31.67° C | 60% | 1010.3 hPa | 0 mm | - | 1049 W/m² | - |
| 1777743147 | 31.67° C | 60% | 1010.7 hPa | 0 mm | - | 372 W/m² | - |
| 1777742845 | 31.67° C | 62% | 1010.7 hPa | 0 mm | - | 1023 W/m² | - |
| 1777742541 | 31.67° C | 62% | 1010.6 hPa | 0 mm | - | 272 W/m² | - |
| 1777742237 | 31.67° C | 62% | 1010.8 hPa | 0 mm | - | 253 W/m² | - |
| 1777741935 | 31.67° C | 60% | 1010.5 hPa | 0 mm | - | 1017 W/m² | - |
| 1777741631 | 32.22° C | 62% | 1010.6 hPa | 0 mm | - | 990 W/m² | - |
| 1777741328 | 32.22° C | 62% | 1010.7 hPa | 0 mm | - | 955 W/m² | - |
| 1777741024 | 31.67° C | 63% | 1010.7 hPa | 0 mm | - | 984 W/m² | - |
| 1777740721 | 31.11° C | 64% | 1010.8 hPa | 0 mm | - | 262 W/m² | - |
| 1777740417 | 31.67° C | 62% | 1010.8 hPa | 0 mm | - | 387 W/m² | - |
| 1777740115 | 32.22° C | 63% | 1010.7 hPa | 0 mm | - | 754 W/m² | - |
| 1777739810 | 31.11° C | 64% | 1011 hPa | 0 mm | - | 907 W/m² | - |
| 1777739508 | 31.11° C | 63% | 1010.8 hPa | 0 mm | - | 342 W/m² | - |
| 1777739204 | 31.11° C | 65% | 1011 hPa | 0 mm | - | 1031 W/m² | - |
| 1777738901 | 31.11° C | 64% | 1011.1 hPa | 0 mm | - | 782 W/m² | - |
| 1777738598 | 31.11° C | 64% | 1010.9 hPa | 0 mm | - | 329 W/m² | - |
| 1777738295 | 31.11° C | 63% | 1010.8 hPa | 0 mm | - | 483 W/m² | - |
* Rain latest hour (hover to see other rain measurements)
** Current wind speed in m/s (hover to see current wind gust speed)